| time (UTC) | temp C | wind direction | speed KPH | gust KPH | rain 1hr cm | rain 24hr cm | rain mn cm | humidity % | barometer mb |
| 20260510225321 | 17 | 129 | 1.6 | 14.5 | 0.00 | 0.15 | 0.15 | 89 | 1015.0 |
| 20260510224821 | 17 | 129 | 0.0 | 14.5 | 0.00 | 0.15 | 0.15 | 89 | 1014.9 |
| 20260510224321 | 18 | 129 | 0.0 | 14.5 | 0.00 | 0.15 | 0.15 | 89 | 1014.7 |
| 20260510223820 | 18 | 129 | 0.0 | 14.5 | 0.00 | 0.15 | 0.15 | 89 | 1014.6 |
| 20260510223320 | 18 | 129 | 0.0 | 14.5 | 0.00 | 0.15 | 0.15 | 89 | 1014.6 |
| 20260510222820 | 18 | 129 | 0.0 | 14.5 | 0.00 | 0.15 | 0.15 | 88 | 1014.9 |
| 20260510222320 | 18 | 129 | 0.0 | 14.5 | 0.00 | 0.15 | 0.15 | 88 | 1014.8 |
| 20260510221820 | 18 | 129 | 0.0 | 14.5 | 0.00 | 0.15 | 0.15 | 87 | 1014.9 |
| 20260510221320 | 18 | 129 | 0.0 | 14.5 | 0.00 | 0.23 | 0.15 | 88 | 1014.9 |
| 20260510220819 | 18 | 129 | 0.0 | 14.5 | 0.00 | 0.28 | 0.15 | 87 | 1014.8 |
| 20260510220319 | 18 | 129 | 0.0 | 14.5 | 0.00 | 0.33 | 0.15 | 86 | 1014.7 |
| 20260510215819 | 18 | 129 | 0.0 | 14.5 | 0.00 | 0.41 | 0.15 | 86 | 1014.7 |
| 20260510215319 | 18 | 129 | 0.0 | 14.5 | 0.00 | 0.43 | 0.15 | 86 | 1014.8 |
| 20260510214819 | 18 | 129 | 0.0 | 14.5 | 0.00 | 0.48 | 0.15 | 86 | 1014.6 |
| 20260510214319 | 18 | 129 | 0.0 | 14.5 | 0.00 | 0.53 | 0.15 | 85 | 1014.5 |
| 20260510213819 | 18 | 158 | 0.0 | 14.5 | 0.00 | 0.64 | 0.15 | 84 | 1014.6 |
| 20260510213318 | 18 | 158 | 0.0 | 14.5 | 0.00 | 0.64 | 0.15 | 85 | 1014.5 |
| 20260510212818 | 18 | 158 | 0.0 | 14.5 | 0.00 | 0.64 | 0.15 | 84 | 1014.5 |
| 20260510212318 | 18 | 158 | 0.0 | 14.5 | 0.00 | 0.64 | 0.15 | 84 | 1014.3 |
| 20260510211818 | 18 | 158 | 0.0 | 14.5 | 0.00 | 0.64 | 0.15 | 85 | 1014.2 |
| 20260510211318 | 18 | 158 | 0.0 | 14.5 | 0.00 | 0.64 | 0.15 | 86 | 1014.2 |
| 20260510210818 | 17 | 158 | 0.0 | 14.5 | 0.00 | 0.64 | 0.15 | 87 | 1014.2 |
| 20260510210317 | 17 | 158 | 0.0 | 14.5 | 0.00 | 0.64 | 0.15 | 87 | 1014.1 |
| 20260510205817 | 17 | 158 | 0.0 | 14.5 | 0.00 | 0.64 | 0.15 | 88 | 1014.1 |
| 20260510205317 | 17 | 158 | 0.0 | 14.5 | 0.00 | 0.64 | 0.15 | 89 | 1014.2 |
| 20260510204817 | 16 | 158 | 0.0 | 14.5 | 0.00 | 0.64 | 0.15 | 88 | 1014.2 |
| 20260510204317 | 16 | 143 | 3.2 | 14.5 | 0.00 | 0.64 | 0.15 | 88 | 1014.1 |
| 20260510203817 | 16 | 169 | 4.8 | 14.5 | 0.00 | 0.64 | 0.15 | 89 | 1014.1 |
| 20260510203317 | 16 | 113 | 1.6 | 14.5 | 0.00 | 0.64 | 0.15 | 88 | 1014.0 |
| 20260510202816 | 16 | 120 | 1.6 | 14.5 | 0.00 | 0.64 | 0.15 | 89 | 1014.0 |
| 20260510202316 | 16 | 136 | 1.6 | 14.5 | 0.03 | 0.64 | 0.15 | 89 | 1014.0 |
| 20260510201816 | 16 | 126 | 3.2 | 14.5 | 0.10 | 0.64 | 0.15 | 89 | 1014.0 |
| 20260510201316 | 16 | 143 | 3.2 | 14.5 | 0.10 | 0.64 | 0.15 | 89 | 1014.0 |
| 20260510200816 | 16 | 122 | 4.8 | 14.5 | 0.10 | 0.64 | 0.15 | 88 | 1014.1 |
| 20260510200316 | 17 | 151 | 4.8 | 14.5 | 0.10 | 0.64 | 0.15 | 87 | 1014.1 |
| 20260510195815 | 17 | 139 | 4.8 | 14.5 | 0.10 | 0.64 | 0.15 | 87 | 1014.1 |
| 20260510195315 | 17 | 171 | 3.2 | 14.5 | 0.13 | 0.64 | 0.15 | 88 | 1014.3 |
| 20260510194815 | 17 | 166 | 8.0 | 14.5 | 0.13 | 0.64 | 0.15 | 88 | 1014.2 |
| 20260510194315 | 17 | 120 | 3.2 | 11.3 | 0.13 | 0.64 | 0.15 | 92 | 1014.2 |
| 20260510193815 | 17 | 121 | 3.2 | 11.3 | 0.13 | 0.64 | 0.15 | 92 | 1014.1 |
| 20260510193315 | 16 | 147 | 3.2 | 11.3 | 0.13 | 0.64 | 0.15 | 91 | 1014.1 |
| 20260510192814 | 16 | 144 | 1.6 | 11.3 | 0.13 | 0.64 | 0.15 | 90 | 1014.4 |
| 20260510192314 | 16 | 170 | 4.8 | 11.3 | 0.10 | 0.61 | 0.13 | 88 | 1014.5 |
| 20260510191814 | 16 | 135 | 0.0 | 11.3 | 0.03 | 0.53 | 0.05 | 88 | 1014.4 |
| 20260510191314 | 16 | 140 | 1.6 | 11.3 | 0.03 | 0.53 | 0.05 | 87 | 1014.3 |
| 20260510190814 | 17 | 139 | 1.6 | 11.3 | 0.03 | 0.53 | 0.05 | 87 | 1014.4 |
| 20260510190314 | 17 | 215 | 1.6 | 11.3 | 0.03 | 0.53 | 0.05 | 85 | 1014.4 |
| 20260510185813 | 17 | 152 | 4.8 | 11.3 | 0.03 | 0.53 | 0.05 | 82 | 1014.4 |
| 20260510185313 | 18 | 165 | 3.2 | 11.3 | 0.00 | 0.51 | 0.03 | 80 | 1014.3 |
| 20260510184813 | 18 | 145 | 4.8 | 11.3 | 0.00 | 0.51 | 0.03 | 77 | 1014.4 |
| 20260510184313 | 18 | 118 | 3.2 | 11.3 | 0.00 | 0.51 | 0.03 | 78 | 1014.4 |
| 20260510183813 | 19 | 170 | 1.6 | 11.3 | 0.00 | 0.51 | 0.03 | 77 | 1014.5 |
| 20260510183313 | 19 | 138 | 1.6 | 11.3 | 0.00 | 0.51 | 0.03 | 77 | 1014.4 |
| 20260510182813 | 19 | 136 | 1.6 | 11.3 | 0.00 | 0.53 | 0.03 | 77 | 1014.5 |
| 20260510182312 | 20 | 122 | 4.8 | 11.3 | 0.00 | 0.58 | 0.03 | 75 | 1014.5 |
| 20260510181812 | 20 | 137 | 1.6 | 11.3 | 0.00 | 0.58 | 0.03 | 76 | 1014.5 |
| 20260510181312 | 20 | 120 | 3.2 | 11.3 | 0.00 | 0.61 | 0.03 | 75 | 1014.5 |
| 20260510180812 | 19 | 150 | 1.6 | 11.3 | 0.00 | 0.64 | 0.03 | 78 | 1014.6 |
| 20260510180312 | 18 | 126 | 1.6 | 11.3 | 0.00 | 0.66 | 0.03 | 78 | 1014.5 |
| 20260510175812 | 19 | 137 | 3.2 | 11.3 | 0.00 | 0.66 | 0.03 | 77 | 1014.6 |
| 20260510175311 | 19 | 196 | 1.6 | 11.3 | 0.00 | 0.66 | 0.03 | 79 | 1014.6 |
| 20260510174811 | 18 | 155 | 1.6 | 11.3 | 0.00 | 0.66 | 0.03 | 79 | 1014.5 |
| 20260510174311 | 18 | 146 | 3.2 | 11.3 | 0.00 | 0.66 | 0.03 | 78 | 1014.5 |
| 20260510173811 | 18 | 128 | 3.2 | 11.3 | 0.00 | 0.66 | 0.03 | 78 | 1014.5 |
| 20260510173311 | 18 | 208 | 4.8 | 11.3 | 0.00 | 0.66 | 0.03 | 78 | 1014.5 |
| 20260510172811 | 18 | 165 | 1.6 | 11.3 | 0.00 | 0.66 | 0.03 | 78 | 1014.5 |
| 20260510172310 | 19 | 152 | 3.2 | 11.3 | 0.00 | 0.66 | 0.03 | 78 | 1014.4 |
| 20260510171810 | 19 | 172 | 3.2 | 11.3 | 0.00 | 0.66 | 0.03 | 77 | 1014.4 |
| 20260510171310 | 19 | 209 | 1.6 | 11.3 | 0.00 | 0.66 | 0.03 | 79 | 1014.5 |
| 20260510170810 | 18 | 129 | 1.6 | 11.3 | 0.00 | 0.66 | 0.03 | 80 | 1014.5 |
| 20260510170310 | 18 | 149 | 0.0 | 11.3 | 0.00 | 0.66 | 0.03 | 82 | 1014.5 |
| 20260510165810 | 17 | 135 | 1.6 | 11.3 | 0.00 | 0.66 | 0.03 | 83 | 1014.5 |
| 20260510165309 | 17 | 121 | 1.6 | 11.3 | 0.00 | 0.66 | 0.03 | 82 | 1014.5 |
| 20260510164809 | 17 | 123 | 3.2 | 9.7 | 0.00 | 0.66 | 0.03 | 82 | 1014.6 |
| 20260510164309 | 17 | 128 | 3.2 | 9.7 | 0.00 | 0.66 | 0.03 | 82 | 1014.6 |
| 20260510163809 | 17 | 85 | 1.6 | 9.7 | 0.00 | 0.66 | 0.03 | 83 | 1014.7 |
| 20260510163309 | 17 | 128 | 0.0 | 9.7 | 0.00 | 0.66 | 0.03 | 84 | 1014.8 |
| 20260510162809 | 17 | 146 | 0.0 | 9.7 | 0.00 | 0.66 | 0.03 | 85 | 1014.7 |
| 20260510162309 | 16 | 136 | 3.2 | 9.7 | 0.00 | 0.66 | 0.03 | 84 | 1014.6 |
| 20260510161808 | 16 | 143 | 1.6 | 9.7 | 0.00 | 0.66 | 0.03 | 87 | 1014.7 |
| 20260510161308 | 16 | 134 | 1.6 | 9.7 | 0.00 | 0.66 | 0.03 | 85 | 1014.8 |
| 20260510160808 | 17 | 132 | 4.8 | 9.7 | 0.00 | 0.66 | 0.03 | 82 | 1014.9 |
| 20260510160308 | 17 | 135 | 0.0 | 8.0 | 0.00 | 0.66 | 0.03 | 86 | 1014.8 |
| 20260510155808 | 17 | 209 | 3.2 | 8.0 | 0.00 | 0.66 | 0.03 | 85 | 1014.8 |
| 20260510155308 | 16 | 118 | 1.6 | 8.0 | 0.00 | 0.66 | 0.03 | 87 | 1014.8 |
| 20260510154807 | 16 | 156 | 0.0 | 8.0 | 0.00 | 0.66 | 0.03 | 88 | 1014.8 |
| 20260510154307 | 16 | 198 | 0.0 | 8.0 | 0.00 | 0.66 | 0.03 | 89 | 1014.9 |
| 20260510153807 | 15 | 198 | 1.6 | 8.0 | 0.00 | 0.66 | 0.03 | 89 | 1014.8 |
| 20260510153307 | 15 | 153 | 1.6 | 8.0 | 0.00 | 0.66 | 0.03 | 91 | 1015.0 |
| 20260510152807 | 15 | 118 | 0.0 | 8.0 | 0.00 | 0.66 | 0.03 | 91 | 1015.1 |
| 20260510152308 | 15 | 118 | 1.6 | 8.0 | 0.00 | 0.66 | 0.03 | 90 | 1015.1 |
| 20260510151807 | 15 | 147 | 0.0 | 8.0 | 0.00 | 0.66 | 0.03 | 92 | 1015.0 |
| 20260510151306 | 15 | 147 | 0.0 | 8.0 | 0.00 | 0.66 | 0.03 | 92 | 1014.9 |
| 20260510150806 | 15 | 148 | 0.0 | 8.0 | 0.00 | 0.66 | 0.03 | 94 | 1015.1 |
| 20260510150306 | 14 | 148 | 0.0 | 8.0 | 0.00 | 0.66 | 0.03 | 95 | 1015.0 |
| 20260510145806 | 14 | 141 | 0.0 | 8.0 | 0.00 | 0.66 | 0.03 | 95 | 1015.1 |
| 20260510145306 | 13 | 114 | 0.0 | 8.0 | 0.00 | 0.66 | 0.03 | 96 | 1015.0 |
| 20260510144806 | 13 | 114 | 0.0 | 8.0 | 0.00 | 0.66 | 0.03 | 96 | 1015.1 |
| 20260510144306 | 13 | 114 | 0.0 | 8.0 | 0.00 | 0.66 | 0.03 | 96 | 1015.0 |
| 20260510143805 | 13 | 114 | 0.0 | 8.0 | 0.00 | 0.66 | 0.03 | 97 | 1014.9 |
| 20260510143305 | 13 | 113 | 0.0 | 8.0 | 0.00 | 0.66 | 0.03 | 97 | 1014.9 |
| 20260510142805 | 13 | 113 | 0.0 | 8.0 | 0.00 | 0.66 | 0.03 | 97 | 1014.9 |
| 20260510142306 | 12 | 113 | 0.0 | 8.0 | 0.00 | 0.66 | 0.03 | 96 | 1014.9 |
| 20260510141805 | 12 | 113 | 0.0 | 8.0 | 0.00 | 0.66 | 0.03 | 97 | 1015.0 |
| 20260510141305 | 12 | 113 | 0.0 | 8.0 | 0.00 | 0.66 | 0.03 | 97 | 1014.9 |
| 20260510140805 | 12 | 113 | 1.6 | 8.0 | 0.00 | 0.66 | 0.03 | 97 | 1014.9 |
| 20260510140304 | 12 | 113 | 0.0 | 8.0 | 0.00 | 0.66 | 0.03 | 97 | 1014.9 |
| 20260510135804 | 12 | 113 | 0.0 | 8.0 | 0.00 | 0.66 | 0.03 | 97 | 1014.9 |
| 20260510135306 | 12 | 138 | 0.0 | 8.0 | 0.00 | 0.66 | 0.03 | 97 | 1014.8 |
| 20260510134804 | 12 | 134 | 1.6 | 8.0 | 0.00 | 0.66 | 0.03 | 97 | 1014.8 |
| 20260510134304 | 12 | 128 | 3.2 | 8.0 | 0.00 | 0.66 | 0.03 | 97 | 1014.8 |
| 20260510133804 | 12 | 136 | 1.6 | 8.0 | 0.00 | 0.66 | 0.03 | 97 | 1015.0 |
| 20260510133304 | 12 | 149 | 0.0 | 8.0 | 0.00 | 0.66 | 0.03 | 97 | 1015.0 |
| 20260510132803 | 12 | 137 | 0.0 | 8.0 | 0.00 | 0.66 | 0.03 | 97 | 1014.9 |
| 20260510132306 | 12 | 137 | 0.0 | 8.0 | 0.00 | 0.66 | 0.03 | 97 | 1014.7 |
| 20260510131803 | 12 | 137 | 0.0 | 8.0 | 0.00 | 0.66 | 0.03 | 97 | 1014.6 |
| 20260510131303 | 12 | 119 | 1.6 | 8.0 | 0.00 | 0.66 | 0.03 | 97 | 1014.6 |
| 20260510130803 | 12 | 119 | 0.0 | 8.0 | 0.00 | 0.66 | 0.03 | 97 | 1014.4 |
| 20260510130303 | 11 | 116 | 3.2 | 8.0 | 0.00 | 0.66 | 0.03 | 97 | 1014.2 |
| 20260510125802 | 11 | 145 | 0.0 | 6.4 | 0.00 | 0.66 | 0.03 | 97 | 1014.1 |
| 20260510125306 | 12 | 122 | 0.0 | 6.4 | 0.00 | 0.66 | 0.03 | 97 | 1014.1 |
| 20260510124802 | 12 | 137 | 1.6 | 6.4 | 0.00 | 0.66 | 0.03 | 97 | 1014.1 |
| 20260510124302 | 11 | 111 | 0.0 | 6.4 | 0.00 | 0.66 | 0.03 | 97 | 1014.0 |
| 20260510123802 | 11 | 121 | 1.6 | 6.4 | 0.00 | 0.66 | 0.03 | 97 | 1014.1 |
| 20260510123302 | 11 | 122 | 1.6 | 6.4 | 0.00 | 0.66 | 0.03 | 97 | 1014.0 |
| 20260510122802 | 11 | 132 | 0.0 | 6.4 | 0.00 | 0.66 | 0.03 | 97 | 1014.0 |
| 20260510122305 | 11 | 135 | 1.6 | 6.4 | 0.00 | 0.66 | 0.03 | 97 | 1014.1 |
| 20260510121801 | 11 | 135 | 0.0 | 6.4 | 0.00 | 0.66 | 0.03 | 97 | 1014.0 |
| 20260510121301 | 11 | 134 | 0.0 | 6.4 | 0.00 | 0.66 | 0.03 | 97 | 1014.0 |
| 20260510120801 | 11 | 129 | 1.6 | 6.4 | 0.00 | 0.66 | 0.03 | 97 | 1014.1 |
| 20260510120301 | 11 | 122 | 0.0 | 6.4 | 0.00 | 0.66 | 0.03 | 97 | 1014.0 |
| 20260510115801 | 12 | 122 | 1.6 | 6.4 | 0.00 | 0.66 | 0.03 | 97 | 1014.0 |
| 20260510115305 | 11 | 122 | 0.0 | 6.4 | 0.00 | 0.66 | 0.03 | 97 | 1013.9 |
| 20260510114801 | 11 | 122 | 0.0 | 6.4 | 0.00 | 0.66 | 0.03 | 97 | 1013.8 |
| 20260510114300 | 11 | 122 | 1.6 | 6.4 | 0.00 | 0.66 | 0.03 | 97 | 1013.7 |
| 20260510113800 | 11 | 122 | 1.6 | 6.4 | 0.00 | 0.66 | 0.03 | 97 | 1013.7 |
| 20260510113300 | 12 | 131 | 0.0 | 6.4 | 0.00 | 0.66 | 0.03 | 97 | 1013.7 |
| 20260510112800 | 12 | 131 | 0.0 | 6.4 | 0.00 | 0.66 | 0.03 | 97 | 1013.7 |
| 20260510112300 | 12 | 131 | 0.0 | 6.4 | 0.00 | 0.66 | 0.03 | 97 | 1013.7 |
| 20260510111800 | 12 | 131 | 0.0 | 6.4 | 0.00 | 0.66 | 0.03 | 97 | 1013.6 |
| 20260510111300 | 12 | 110 | 0.0 | 6.4 | 0.00 | 0.66 | 0.03 | 97 | 1013.4 |
| 20260510110759 | 12 | 116 | 1.6 | 6.4 | 0.00 | 0.66 | 0.03 | 97 | 1013.4 |
| 20260510110259 | 11 | 125 | 1.6 | 6.4 | 0.00 | 0.66 | 0.03 | 97 | 1013.3 |
| 20260510105759 | 11 | 134 | 1.6 | 6.4 | 0.00 | 0.66 | 0.03 | 97 | 1013.2 |
| 20260510105259 | 11 | 123 | 0.0 | 6.4 | 0.00 | 0.66 | 0.03 | 97 | 1013.2 |
| 20260510104759 | 11 | 123 | 0.0 | 6.4 | 0.00 | 0.66 | 0.03 | 97 | 1013.1 |
| 20260510104259 | 11 | 123 | 0.0 | 6.4 | 0.00 | 0.66 | 0.03 | 97 | 1013.2 |
| 20260510103759 | 12 | 123 | 0.0 | 6.4 | 0.00 | 0.66 | 0.03 | 98 | 1013.2 |
| 20260510103258 | 12 | 123 | 0.0 | 6.4 | 0.00 | 0.66 | 0.03 | 98 | 1013.3 |
| 20260510102758 | 12 | 123 | 0.0 | 6.4 | 0.00 | 0.66 | 0.03 | 98 | 1013.1 |
| 20260510102258 | 11 | 123 | 0.0 | 6.4 | 0.00 | 0.66 | 0.03 | 98 | 1013.2 |
| 20260510101758 | 11 | 123 | 0.0 | 6.4 | 0.00 | 0.66 | 0.03 | 97 | 1013.1 |
| 20260510101258 | 11 | 123 | 0.0 | 6.4 | 0.00 | 0.66 | 0.03 | 97 | 1013.1 |
| 20260510100758 | 11 | 123 | 0.0 | 6.4 | 0.00 | 0.66 | 0.03 | 98 | 1013.0 |
| 20260510100258 | 11 | 123 | 0.0 | 6.4 | 0.00 | 0.66 | 0.03 | 98 | 1013.1 |
| 20260510095757 | 11 | 123 | 0.0 | 6.4 | 0.00 | 0.66 | 0.03 | 98 | 1013.1 |
| 20260510095257 | 11 | 123 | 0.0 | 6.4 | 0.00 | 0.66 | 0.03 | 97 | 1013.2 |
| 20260510094757 | 11 | 123 | 0.0 | 6.4 | 0.00 | 0.66 | 0.03 | 98 | 1013.1 |
| 20260510094257 | 11 | 123 | 0.0 | 6.4 | 0.00 | 0.66 | 0.03 | 98 | 1013.0 |
| 20260510093757 | 11 | 338 | 0.0 | 6.4 | 0.00 | 0.66 | 0.03 | 98 | 1013.1 |
| 20260510093257 | 11 | 338 | 0.0 | 6.4 | 0.00 | 0.66 | 0.03 | 98 | 1013.0 |
| 20260510092757 | 11 | 338 | 0.0 | 6.4 | 0.00 | 0.66 | 0.03 | 97 | 1013.1 |
| 20260510092256 | 11 | 341 | 0.0 | 6.4 | 0.00 | 0.66 | 0.03 | 97 | 1013.1 |
| 20260510091756 | 11 | 341 | 0.0 | 6.4 | 0.00 | 0.66 | 0.03 | 97 | 1013.2 |
| 20260510091256 | 11 | 341 | 0.0 | 6.4 | 0.00 | 0.66 | 0.03 | 97 | 1013.3 |
| 20260510090756 | 11 | 332 | 1.6 | 6.4 | 0.00 | 0.66 | 0.03 | 97 | 1013.4 |
| 20260510090256 | 11 | 311 | 0.0 | 3.2 | 0.00 | 0.66 | 0.03 | 97 | 1013.3 |
| 20260510085756 | 10 | 311 | 0.0 | 3.2 | 0.00 | 0.66 | 0.03 | 97 | 1013.4 |
| 20260510085256 | 10 | 122 | 0.0 | 3.2 | 0.00 | 0.66 | 0.03 | 97 | 1013.3 |
| 20260510084755 | 11 | 122 | 0.0 | 3.2 | 0.00 | 0.66 | 0.03 | 97 | 1012.9 |
| 20260510084255 | 11 | 122 | 0.0 | 3.2 | 0.00 | 0.66 | 0.03 | 97 | 1013.0 |
| 20260510083755 | 11 | 122 | 0.0 | 3.2 | 0.00 | 0.66 | 0.03 | 97 | 1012.9 |
| 20260510083255 | 11 | 122 | 0.0 | 3.2 | 0.00 | 0.66 | 0.03 | 97 | 1012.8 |
| 20260510082755 | 11 | 122 | 0.0 | 3.2 | 0.00 | 0.66 | 0.03 | 97 | 1012.8 |
| 20260510082255 | 11 | 122 | 0.0 | 3.2 | 0.00 | 0.66 | 0.03 | 97 | 1012.9 |
| 20260510081754 | 11 | 122 | 0.0 | 3.2 | 0.00 | 0.66 | 0.03 | 97 | 1012.9 |
| 20260510081254 | 10 | 122 | 0.0 | 3.2 | 0.00 | 0.66 | 0.03 | 97 | 1012.8 |
| 20260510080754 | 10 | 315 | 0.0 | 3.2 | 0.00 | 0.66 | 0.03 | 97 | 1012.7 |
| 20260510080254 | 10 | 315 | 0.0 | 3.2 | 0.00 | 0.66 | 0.03 | 97 | 1012.7 |
| 20260510075754 | 10 | 315 | 0.0 | 3.2 | 0.00 | 0.66 | 0.03 | 97 | 1012.6 |
| 20260510075254 | 10 | 274 | 0.0 | 3.2 | 0.00 | 0.66 | 0.03 | 97 | 1012.6 |
| 20260510074754 | 10 | 284 | 0.0 | 3.2 | 0.00 | 0.66 | 0.03 | 97 | 1012.6 |
| 20260510074253 | 10 | 1 | 0.0 | 3.2 | 0.00 | 0.66 | 0.03 | 97 | 1012.6 |
| 20260510073753 | 10 | 1 | 0.0 | 3.2 | 0.00 | 0.66 | 0.03 | 97 | 1012.5 |
| 20260510073253 | 10 | 1 | 0.0 | 3.2 | 0.00 | 0.66 | 0.03 | 97 | 1012.5 |
| 20260510072753 | 10 | 1 | 0.0 | 3.2 | 0.00 | 0.66 | 0.03 | 97 | 1012.5 |
| 20260510072253 | 10 | 5 | 0.0 | 3.2 | 0.00 | 0.66 | 0.03 | 97 | 1012.5 |
| 20260510071753 | 10 | 6 | 0.0 | 3.2 | 0.00 | 0.66 | 0.03 | 97 | 1012.5 |
| 20260510071253 | 10 | 288 | 0.0 | 3.2 | 0.00 | 0.66 | 0.03 | 96 | 1012.5 |
| 20260510070752 | 10 | 134 | 0.0 | 1.6 | 0.00 | 0.66 | 0.03 | 97 | 1012.5 |
| 20260510070252 | 10 | 134 | 0.0 | 1.6 | 0.00 | 0.66 | 0.03 | 97 | 1012.5 |
| 20260510065752 | 10 | 134 | 0.0 | 1.6 | 0.00 | 0.66 | 0.03 | 97 | 1012.4 |
| 20260510065252 | 10 | 134 | 0.0 | 1.6 | 0.00 | 0.66 | 0.03 | 97 | 1012.3 |
| 20260510064752 | 10 | 134 | 0.0 | 1.6 | 0.03 | 0.66 | 0.03 | 97 | 1012.3 |
| 20260510064252 | 10 | 134 | 0.0 | 1.6 | 0.03 | 0.66 | 0.03 | 97 | 1012.3 |
| 20260510063751 | 10 | 134 | 0.0 | 1.6 | 0.03 | 0.66 | 0.03 | 97 | 1012.2 |
| 20260510063251 | 10 | 134 | 0.0 | 1.6 | 0.03 | 0.66 | 0.03 | 97 | 1012.2 |
| 20260510062751 | 10 | 134 | 0.0 | 1.6 | 0.03 | 0.66 | 0.03 | 97 | 1012.3 |
| 20260510062251 | 10 | 134 | 0.0 | 1.6 | 0.03 | 0.66 | 0.03 | 97 | 1012.3 |
| 20260510061751 | 10 | 134 | 0.0 | 1.6 | 0.03 | 0.66 | 0.03 | 97 | 1012.2 |
| 20260510061251 | 10 | 134 | 0.0 | 1.6 | 0.03 | 0.66 | 0.03 | 97 | 1012.2 |
| 20260510060751 | 10 | 134 | 0.0 | 1.6 | 0.03 | 0.66 | 0.03 | 97 | 1012.2 |
| 20260510060250 | 10 | 134 | 0.0 | 1.6 | 0.03 | 0.66 | 0.03 | 97 | 1012.2 |
| 20260510055750 | 10 | 134 | 0.0 | 1.6 | 0.03 | 0.66 | 0.03 | 97 | 1012.3 |
| 20260510055250 | 10 | 134 | 0.0 | 0.0 | 0.03 | 0.66 | 0.03 | 97 | 1012.3 |
| 20260510054750 | 10 | 134 | 0.0 | 0.0 | 0.00 | 0.64 | 0.00 | 96 | 1012.4 |
| 20260510054250 | 10 | 134 | 0.0 | 0.0 | 0.00 | 0.64 | 0.00 | 97 | 1012.4 |
| 20260510053750 | 10 | 134 | 0.0 | 0.0 | 0.00 | 0.64 | 0.00 | 96 | 1012.3 |
| 20260510053249 | 10 | 134 | 0.0 | 0.0 | 0.00 | 0.64 | 0.00 | 97 | 1012.3 |
| 20260510052749 | 10 | 134 | 0.0 | 0.0 | 0.00 | 0.64 | 0.00 | 96 | 1012.4 |
| 20260510052249 | 10 | 134 | 0.0 | 0.0 | 0.00 | 0.64 | 0.00 | 96 | 1012.4 |
| 20260510051749 | 10 | 134 | 0.0 | 0.0 | 0.00 | 0.64 | 0.00 | 96 | 1012.5 |
| 20260510051249 | 10 | 134 | 0.0 | 0.0 | 0.00 | 0.64 | 0.00 | 96 | 1012.4 |
| 20260510050749 | 10 | 134 | 0.0 | 0.0 | 0.00 | 0.64 | 0.00 | 96 | 1012.4 |
| 20260510050248 | 10 | 134 | 0.0 | 0.0 | 0.00 | 0.64 | 0.00 | 96 | 1012.5 |
| 20260510045748 | 10 | 134 | 0.0 | 0.0 | 0.00 | 0.64 | 0.00 | 96 | 1012.5 |
| 20260510045248 | 10 | 134 | 0.0 | 0.0 | 0.00 | 0.64 | 0.00 | 96 | 1012.6 |
| 20260510044748 | 10 | 134 | 0.0 | 0.0 | 0.00 | 0.64 | 0.00 | 96 | 1012.6 |
| 20260510044248 | 10 | 134 | 0.0 | 0.0 | 0.00 | 0.64 | 0.00 | 96 | 1012.7 |
| 20260510043748 | 10 | 134 | 0.0 | 0.0 | 0.00 | 0.64 | 0.00 | 96 | 1012.7 |
| 20260510043247 | 10 | 134 | 0.0 | 0.0 | 0.00 | 0.64 | 0.00 | 96 | 1012.7 |
| 20260510042747 | 10 | 134 | 0.0 | 0.0 | 0.00 | 0.64 | 0.00 | 96 | 1012.7 |
| 20260510042247 | 10 | 134 | 0.0 | 0.0 | 0.00 | 0.64 | 0.00 | 96 | 1012.7 |
| 20260510041747 | 10 | 134 | 0.0 | 0.0 | 0.00 | 0.64 | 0.00 | 96 | 1012.7 |
| 20260510041247 | 10 | 134 | 0.0 | 0.0 | 0.00 | 0.64 | 0.00 | 96 | 1012.5 |
| 20260510040747 | 10 | 134 | 0.0 | 0.0 | 0.00 | 0.64 | 0.00 | 96 | 1012.5 |
| 20260510040246 | 10 | 134 | 0.0 | 0.0 | 0.00 | 0.64 | 0.00 | 96 | 1012.5 |
| 20260510035746 | 11 | 134 | 0.0 | 19.3 | 0.00 | 0.64 | 0.64 | 96 | 1012.4 |
| 20260510035246 | 11 | 134 | 0.0 | 19.3 | 0.00 | 0.64 | 0.64 | 96 | 1012.3 |
| 20260510034746 | 11 | 134 | 0.0 | 19.3 | 0.00 | 0.64 | 0.64 | 96 | 1012.3 |
| 20260510034246 | 11 | 134 | 0.0 | 19.3 | 0.00 | 0.64 | 0.64 | 96 | 1012.3 |
| 20260510033746 | 11 | 134 | 0.0 | 19.3 | 0.00 | 0.64 | 0.64 | 96 | 1012.3 |
| 20260510033246 | 11 | 134 | 0.0 | 19.3 | 0.00 | 0.64 | 0.64 | 96 | 1012.3 |
| 20260510032745 | 11 | 134 | 0.0 | 19.3 | 0.00 | 0.64 | 0.64 | 96 | 1012.2 |
| 20260510032245 | 11 | 134 | 0.0 | 19.3 | 0.00 | 0.64 | 0.64 | 96 | 1012.4 |
| 20260510031745 | 11 | 134 | 0.0 | 19.3 | 0.00 | 0.64 | 0.64 | 96 | 1012.4 |
| 20260510031245 | 11 | 134 | 0.0 | 19.3 | 0.00 | 0.64 | 0.64 | 96 | 1012.3 |
| 20260510030745 | 11 | 134 | 0.0 | 19.3 | 0.00 | 0.64 | 0.64 | 96 | 1012.2 |
| 20260510030245 | 11 | 134 | 0.0 | 19.3 | 0.00 | 0.64 | 0.64 | 96 | 1012.3 |
| 20260510025744 | 11 | 134 | 0.0 | 19.3 | 0.00 | 0.64 | 0.64 | 96 | 1012.3 |
| 20260510025244 | 11 | 134 | 0.0 | 19.3 | 0.00 | 0.64 | 0.64 | 96 | 1012.2 |
| 20260510024744 | 11 | 134 | 0.0 | 19.3 | 0.00 | 0.64 | 0.64 | 96 | 1012.2 |
| 20260510024244 | 11 | 134 | 0.0 | 19.3 | 0.00 | 0.64 | 0.64 | 96 | 1012.3 |
| 20260510023744 | 11 | 134 | 0.0 | 19.3 | 0.00 | 0.64 | 0.64 | 96 | 1012.2 |
| 20260510023244 | 11 | 134 | 0.0 | 19.3 | 0.00 | 0.64 | 0.64 | 96 | 1012.3 |
| 20260510022743 | 11 | 134 | 0.0 | 19.3 | 0.00 | 0.64 | 0.64 | 96 | 1012.3 |
| 20260510022243 | 11 | 134 | 0.0 | 19.3 | 0.00 | 0.64 | 0.64 | 96 | 1012.4 |
| 20260510021743 | 11 | 134 | 0.0 | 19.3 | 0.00 | 0.64 | 0.64 | 95 | 1012.4 |
| 20260510021243 | 11 | 134 | 0.0 | 19.3 | 0.00 | 0.64 | 0.64 | 96 | 1012.3 |
| 20260510020743 | 11 | 134 | 0.0 | 19.3 | 0.00 | 0.64 | 0.64 | 95 | 1012.4 |
| 20260510020243 | 11 | 134 | 0.0 | 19.3 | 0.00 | 0.64 | 0.64 | 95 | 1012.3 |
| 20260510015742 | 12 | 134 | 0.0 | 19.3 | 0.00 | 0.64 | 0.64 | 96 | 1012.3 |
| 20260510015242 | 11 | 134 | 0.0 | 19.3 | 0.00 | 0.64 | 0.64 | 95 | 1012.3 |
| 20260510014742 | 12 | 134 | 0.0 | 19.3 | 0.00 | 0.64 | 0.64 | 95 | 1012.2 |
| 20260510014242 | 11 | 134 | 0.0 | 19.3 | 0.00 | 0.64 | 0.64 | 95 | 1012.2 |
| 20260510013742 | 12 | 134 | 0.0 | 19.3 | 0.00 | 0.64 | 0.64 | 95 | 1012.2 |
| 20260510013242 | 11 | 134 | 0.0 | 19.3 | 0.00 | 0.64 | 0.64 | 95 | 1012.2 |
| 20260510012741 | 11 | 134 | 0.0 | 19.3 | 0.00 | 0.64 | 0.64 | 95 | 1012.2 |
| 20260510012241 | 11 | 134 | 0.0 | 19.3 | 0.00 | 0.64 | 0.64 | 95 | 1012.2 |
| 20260510011741 | 11 | 134 | 0.0 | 19.3 | 0.00 | 0.64 | 0.64 | 95 | 1012.0 |
| 20260510011241 | 11 | 134 | 0.0 | 19.3 | 0.00 | 0.64 | 0.64 | 94 | 1012.0 |
| 20260510010741 | 12 | 134 | 0.0 | 19.3 | 0.00 | 0.64 | 0.64 | 95 | 1012.0 |
| 20260510010241 | 12 | 134 | 0.0 | 19.3 | 0.00 | 0.64 | 0.64 | 94 | 1011.9 |
| 20260510005741 | 12 | 134 | 0.0 | 19.3 | 0.00 | 0.64 | 0.64 | 94 | 1011.8 |
| 20260510005240 | 12 | 134 | 0.0 | 19.3 | 0.00 | 0.64 | 0.64 | 94 | 1011.8 |
| 20260510004740 | 12 | 134 | 0.0 | 19.3 | 0.00 | 0.64 | 0.64 | 94 | 1011.8 |
| 20260510004240 | 12 | 134 | 0.0 | 19.3 | 0.00 | 0.64 | 0.64 | 94 | 1011.8 |
| 20260510003740 | 12 | 134 | 0.0 | 19.3 | 0.00 | 0.64 | 0.64 | 93 | 1011.8 |
| 20260510003240 | 12 | 134 | 0.0 | 19.3 | 0.00 | 0.64 | 0.64 | 93 | 1011.8 |
| 20260510002740 | 12 | 134 | 0.0 | 19.3 | 0.00 | 0.64 | 0.64 | 93 | 1011.8 |
| 20260510002240 | 12 | 134 | 0.0 | 19.3 | 0.00 | 0.64 | 0.64 | 93 | 1011.8 |
| 20260510001739 | 12 | 134 | 0.0 | 19.3 | 0.00 | 0.64 | 0.64 | 93 | 1011.8 |
| 20260510001239 | 12 | 134 | 0.0 | 19.3 | 0.00 | 0.64 | 0.64 | 93 | 1011.8 |
| 20260510000739 | 12 | 134 | 0.0 | 19.3 | 0.00 | 0.64 | 0.64 | 92 | 1011.7 |
| 20260510000241 | 12 | 134 | 0.0 | 19.3 | 0.00 | 0.64 | 0.64 | 92 | 1011.6 |
| 20260509235739 | 13 | 134 | 0.0 | 19.3 | 0.00 | 0.64 | 0.64 | 92 | 1011.6 |
| 20260509235239 | 13 | 134 | 0.0 | 19.3 | 0.00 | 0.64 | 0.64 | 91 | 1011.6 |
| 20260509234739 | 13 | 134 | 0.0 | 19.3 | 0.00 | 0.64 | 0.64 | 91 | 1011.6 |
| 20260509234238 | 13 | 134 | 0.0 | 19.3 | 0.00 | 0.64 | 0.64 | 91 | 1011.5 |
| 20260509233738 | 13 | 134 | 0.0 | 19.3 | 0.00 | 0.64 | 0.64 | 91 | 1011.5 |
| 20260509233238 | 13 | 138 | 0.0 | 19.3 | 0.00 | 0.64 | 0.64 | 91 | 1011.4 |
| 20260509232738 | 13 | 137 | 1.6 | 19.3 | 0.00 | 0.64 | 0.64 | 90 | 1011.4 |
| 20260509232238 | 13 | 133 | 0.0 | 19.3 | 0.00 | 0.64 | 0.64 | 91 | 1011.4 |
| 20260509231738 | 13 | 131 | 0.0 | 19.3 | 0.03 | 0.64 | 0.64 | 90 | 1011.4 |
| 20260509231237 | 13 | 131 | 0.0 | 19.3 | 0.08 | 0.64 | 0.64 | 90 | 1011.4 |
| 20260509230737 | 13 | 131 | 0.0 | 19.3 | 0.13 | 0.64 | 0.64 | 91 | 1011.5 |
| 20260509230237 | 13 | 105 | 0.0 | 19.3 | 0.20 | 0.64 | 0.64 | 91 | 1011.6 |
| 20260509225737 | 13 | 155 | 0.0 | 19.3 | 0.25 | 0.64 | 0.64 | 90 | 1011.6 |